Time,TemperatureF,DewpointF,PressureIn,WindDirection,WindDirectionDegrees,WindSpeedMPH,WindSpeedGustMPH,Humidity,HourlyPrecipIn,Conditions,Clouds,dailyrainin,SolarRadiationWatts/m^2,SoftwareType,DateUTC
2013-02-06 00:05:00,24.2,19.0,30.06,NNE,19,0.0,3.0,79,0.00,,,0.00,5,weatherlink.com 1.10,2013-02-06 05:05:00,
2013-02-06 00:20:00,24.0,19.0,30.07,WNW,296,0.0,2.0,80,0.00,,,0.00,5,weatherlink.com 1.10,2013-02-06 05:20:00,
2013-02-06 00:35:00,24.0,19.0,30.08,WNW,296,0.0,2.0,80,0.00,,,0.00,5,weatherlink.com 1.10,2013-02-06 05:35:00,
2013-02-06 00:50:00,23.9,19.0,30.08,WNW,296,0.0,0.0,80,0.00,,,0.00,5,weatherlink.com 1.10,2013-02-06 05:50:00,
2013-02-06 01:05:00,23.8,19.0,30.08,WNW,296,0.0,0.0,81,0.00,,,0.00,5,weatherlink.com 1.10,2013-02-06 06:05:00,
2013-02-06 01:20:00,23.7,19.0,30.09,WNW,296,0.0,0.0,81,0.00,,,0.00,5,weatherlink.com 1.10,2013-02-06 06:20:00,
2013-02-06 01:35:00,23.6,19.0,30.09,WNW,296,0.0,0.0,81,0.00,,,0.00,5,weatherlink.com 1.10,2013-02-06 06:35:00,
2013-02-06 01:50:00,23.4,19.0,30.09,WNW,296,0.0,0.0,82,0.00,,,0.00,5,weatherlink.com 1.10,2013-02-06 06:50:00,
2013-02-06 02:05:00,23.2,19.0,30.11,WNW,296,0.0,0.0,82,0.00,,,0.00,5,weatherlink.com 1.10,2013-02-06 07:05:00,
2013-02-06 02:20:00,22.8,18.0,30.11,WNW,296,0.0,0.0,82,0.00,,,0.00,5,weatherlink.com 1.10,2013-02-06 07:20:00,
2013-02-06 02:35:00,22.3,18.0,30.12,WNW,296,0.0,0.0,82,0.00,,,0.00,5,weatherlink.com 1.10,2013-02-06 07:35:00,
2013-02-06 02:50:00,21.9,17.0,30.13,WNW,296,0.0,0.0,82,0.00,,,0.00,5,weatherlink.com 1.10,2013-02-06 07:50:00,
2013-02-06 03:05:00,21.3,17.0,30.13,WNW,296,0.0,0.0,82,0.00,,,0.00,5,weatherlink.com 1.10,2013-02-06 08:05:00,
2013-02-06 03:20:00,20.7,16.0,30.13,WNW,296,0.0,0.0,83,0.00,,,0.00,5,weatherlink.com 1.10,2013-02-06 08:20:00,
2013-02-06 03:35:00,20.1,16.0,30.14,WNW,296,0.0,0.0,83,0.00,,,0.00,5,weatherlink.com 1.10,2013-02-06 08:35:00,
2013-02-06 03:50:00,19.4,15.0,30.14,WNW,295,0.0,0.0,83,0.00,,,0.00,5,weatherlink.com 1.10,2013-02-06 08:50:00,
2013-02-06 04:05:00,18.7,14.0,30.15,WNW,296,0.0,0.0,83,0.00,,,0.00,5,weatherlink.com 1.10,2013-02-06 09:05:00,
2013-02-06 04:20:00,18.2,14.0,30.16,WNW,296,0.0,0.0,84,0.00,,,0.00,5,weatherlink.com 1.10,2013-02-06 09:20:00,
2013-02-06 04:35:00,17.4,13.0,30.17,WNW,295,0.0,0.0,84,0.00,,,0.00,0,weatherlink.com 1.10,2013-02-06 09:35:00,
2013-02-06 04:51:00,16.6,13.0,30.17,WNW,295,0.0,0.0,84,0.00,,,0.00,0,weatherlink.com 1.10,2013-02-06 09:51:00,
2013-02-06 05:06:00,16.1,12.0,30.17,WNW,295,0.0,0.0,84,0.00,,,0.00,5,weatherlink.com 1.10,2013-02-06 10:06:00,
2013-02-06 05:20:00,16.1,12.0,30.18,WNW,296,0.0,0.0,85,0.00,,,0.00,0,weatherlink.com 1.10,2013-02-06 10:20:00,
2013-02-06 05:35:00,16.3,13.0,30.18,WNW,296,0.0,0.0,86,0.00,,,0.00,5,weatherlink.com 1.10,2013-02-06 10:35:00,
2013-02-06 05:50:00,16.3,13.0,30.18,WNW,296,0.0,0.0,86,0.00,,,0.00,5,weatherlink.com 1.10,2013-02-06 10:50:00,
2013-02-06 06:05:00,16.1,13.0,30.18,WNW,296,0.0,0.0,86,0.00,,,0.00,0,weatherlink.com 1.10,2013-02-06 11:05:00,
2013-02-06 06:20:00,15.4,12.0,30.19,WNW,296,0.0,0.0,86,0.00,,,0.00,0,weatherlink.com 1.10,2013-02-06 11:20:00,
2013-02-06 06:35:00,14.9,12.0,30.20,WNW,296,0.0,0.0,86,0.00,,,0.00,0,weatherlink.com 1.10,2013-02-06 11:35:00,
2013-02-06 06:50:00,14.3,11.0,30.20,WNW,296,0.0,0.0,86,0.00,,,0.00,0,weatherlink.com 1.10,2013-02-06 11:50:00,
2013-02-06 07:05:00,14.0,11.0,30.22,WNW,296,0.0,0.0,86,0.00,,,0.00,0,weatherlink.com 1.10,2013-02-06 12:05:00,
2013-02-06 07:20:00,13.6,10.0,30.22,WNW,296,0.0,0.0,86,0.00,,,0.00,0,weatherlink.com 1.10,2013-02-06 12:20:00,
2013-02-06 07:36:00,13.1,10.0,30.23,WNW,296,0.0,0.0,86,0.00,,,0.00,5,weatherlink.com 1.10,2013-02-06 12:36:00,
2013-02-06 07:50:00,12.5,9.0,30.23,WNW,296,0.0,0.0,86,0.00,,,0.00,9,weatherlink.com 1.10,2013-02-06 12:50:00,
2013-02-06 08:05:00,12.2,9.0,30.25,WNW,296,0.0,0.0,86,0.00,,,0.00,21,weatherlink.com 1.10,2013-02-06 13:05:00,
2013-02-06 08:20:00,12.2,9.0,30.25,WNW,295,0.0,0.0,86,0.00,,,0.00,35,weatherlink.com 1.10,2013-02-06 13:20:00,
2013-02-06 08:35:00,12.5,9.0,30.25,WNW,296,0.0,2.0,86,0.00,,,0.00,44,weatherlink.com 1.10,2013-02-06 13:35:00,
2013-02-06 08:51:00,13.1,10.0,30.25,WNW,296,0.0,0.0,87,0.00,,,0.00,88,weatherlink.com 1.10,2013-02-06 13:51:00,
2013-02-06 09:06:00,14.2,11.0,30.26,WNW,295,0.0,1.0,88,0.00,,,0.00,111,weatherlink.com 1.10,2013-02-06 14:06:00,
2013-02-06 09:21:00,17.1,14.0,30.25,WNW,296,0.0,2.0,88,0.00,,,0.00,202,weatherlink.com 1.10,2013-02-06 14:21:00,
2013-02-06 09:36:00,19.4,16.0,30.26,NE,38,1.0,2.0,88,0.00,,,0.00,267,weatherlink.com 1.10,2013-02-06 14:36:00,
2013-02-06 09:51:00,20.9,18.0,30.26,NE,38,0.0,2.0,87,0.00,,,0.00,195,weatherlink.com 1.10,2013-02-06 14:51:00,
2013-02-06 10:06:00,22.2,18.0,30.28,NE,38,0.0,1.0,85,0.00,,,0.00,239,weatherlink.com 1.10,2013-02-06 15:06:00,
2013-02-06 10:21:00,23.5,19.0,30.28,NE,44,0.0,3.0,83,0.00,,,0.00,272,weatherlink.com 1.10,2013-02-06 15:21:00,
2013-02-06 10:36:00,24.3,19.0,30.28,NE,44,0.0,2.0,81,0.00,,,0.00,250,weatherlink.com 1.10,2013-02-06 15:36:00,
2013-02-06 10:51:00,25.2,19.0,30.28,SW,227,3.0,4.0,78,0.00,,,0.00,292,weatherlink.com 1.10,2013-02-06 15:51:00,
2013-02-06 11:06:00,26.3,19.0,30.28,SW,236,1.0,5.0,75,0.00,,,0.00,315,weatherlink.com 1.10,2013-02-06 16:06:00,
2013-02-06 11:21:00,27.7,20.0,30.28,WSW,237,0.0,5.0,72,0.00,,,0.00,359,weatherlink.com 1.10,2013-02-06 16:21:00,
2013-02-06 11:36:00,28.3,19.0,30.29,SW,231,4.0,8.0,67,0.00,,,0.00,515,weatherlink.com 1.10,2013-02-06 16:36:00,
2013-02-06 11:51:00,29.0,19.0,30.29,SW,223,1.0,8.0,65,0.00,,,0.00,534,weatherlink.com 1.10,2013-02-06 16:51:00,
2013-02-06 12:06:00,29.4,19.0,30.29,SW,232,0.0,10.0,64,0.00,,,0.00,536,weatherlink.com 1.10,2013-02-06 17:06:00,
2013-02-06 12:21:00,30.1,19.0,30.29,SSW,207,2.0,6.0,63,0.00,,,0.00,524,weatherlink.com 1.10,2013-02-06 17:21:00,
2013-02-06 12:36:00,30.7,19.0,30.28,SSE,158,0.0,4.0,63,0.00,,,0.00,566,weatherlink.com 1.10,2013-02-06 17:36:00,
2013-02-06 12:51:00,30.5,19.0,30.28,South,180,0.0,8.0,63,0.00,,,0.00,580,weatherlink.com 1.10,2013-02-06 17:51:00,
2013-02-06 13:06:00,31.5,20.0,30.27,SSE,167,2.0,5.0,63,0.00,,,0.00,564,weatherlink.com 1.10,2013-02-06 18:06:00,
2013-02-06 13:21:00,31.4,20.0,30.26,WSW,257,4.0,6.0,63,0.00,,,0.00,568,weatherlink.com 1.10,2013-02-06 18:21:00,
2013-02-06 13:36:00,31.7,20.0,30.26,SSW,196,4.0,7.0,63,0.00,,,0.00,573,weatherlink.com 1.10,2013-02-06 18:36:00,
2013-02-06 13:51:00,32.5,21.0,30.26,West,261,2.0,12.0,63,0.00,,,0.00,603,weatherlink.com 1.10,2013-02-06 18:51:00,
2013-02-06 14:06:00,32.6,20.0,30.26,SW,226,4.0,9.0,61,0.00,,,0.00,557,weatherlink.com 1.10,2013-02-06 19:06:00,
2013-02-06 14:22:00,32.7,20.0,30.25,WSW,242,2.0,7.0,61,0.00,,,0.00,524,weatherlink.com 1.10,2013-02-06 19:22:00,
2013-02-06 14:36:00,32.5,21.0,30.24,WSW,237,1.0,6.0,62,0.00,,,0.00,496,weatherlink.com 1.10,2013-02-06 19:36:00,
2013-02-06 14:51:00,32.8,21.0,30.24,SSW,201,4.0,8.0,61,0.00,,,0.00,466,weatherlink.com 1.10,2013-02-06 19:51:00,
2013-02-06 15:07:00,32.8,21.0,30.23,SSW,207,2.0,6.0,61,0.00,,,0.00,429,weatherlink.com 1.10,2013-02-06 20:07:00,
2013-02-06 15:21:00,32.7,21.0,30.23,SW,230,2.0,9.0,62,0.00,,,0.00,397,weatherlink.com 1.10,2013-02-06 20:21:00,
2013-02-06 15:36:00,33.2,21.0,30.25,SW,235,2.0,7.0,61,0.00,,,0.00,373,weatherlink.com 1.10,2013-02-06 20:36:00,
2013-02-06 15:51:00,33.0,21.0,30.25,SSW,201,3.0,11.0,61,0.00,,,0.00,287,weatherlink.com 1.10,2013-02-06 20:51:00,
2013-02-06 16:07:00,32.9,21.0,30.25,WSW,257,0.0,7.0,61,0.00,,,0.00,93,weatherlink.com 1.10,2013-02-06 21:07:00,
2013-02-06 16:22:00,32.6,21.0,30.26,West,262,2.0,6.0,62,0.00,,,0.00,267,weatherlink.com 1.10,2013-02-06 21:22:00,
2013-02-06 16:36:00,33.2,21.0,30.26,WSW,242,0.0,5.0,61,0.00,,,0.00,239,weatherlink.com 1.10,2013-02-06 21:36:00,
2013-02-06 16:52:00,33.6,21.0,30.25,WSW,245,2.0,6.0,61,0.00,,,0.00,199,weatherlink.com 1.10,2013-02-06 21:52:00,
2013-02-06 17:07:00,33.4,21.0,30.26,West,268,1.0,4.0,61,0.00,,,0.00,111,weatherlink.com 1.10,2013-02-06 22:07:00,
2013-02-06 17:21:00,32.8,21.0,30.25,West,269,0.0,4.0,62,0.00,,,0.00,84,weatherlink.com 1.10,2013-02-06 22:21:00,
2013-02-06 17:36:00,32.5,21.0,30.25,West,268,0.0,0.0,64,0.00,,,0.00,28,weatherlink.com 1.10,2013-02-06 22:36:00,
2013-02-06 17:52:00,32.4,21.0,30.25,West,269,0.0,0.0,64,0.00,,,0.00,16,weatherlink.com 1.10,2013-02-06 22:52:00,
2013-02-06 18:07:00,31.8,21.0,30.25,West,269,0.0,0.0,65,0.00,,,0.00,0,weatherlink.com 1.10,2013-02-06 23:07:00,
2013-02-06 18:22:00,30.8,21.0,30.26,West,269,0.0,0.0,67,0.00,,,0.00,7,weatherlink.com 1.10,2013-02-06 23:22:00,
2013-02-06 18:37:00,30.1,21.0,30.27,West,268,0.0,0.0,68,0.00,,,0.00,0,weatherlink.com 1.10,2013-02-06 23:37:00,
2013-02-06 18:52:00,29.4,21.0,30.26,West,268,0.0,0.0,70,0.00,,,0.00,0,weatherlink.com 1.10,2013-02-06 23:52:00,
2013-02-06 19:07:00,28.9,21.0,30.25,West,269,0.0,0.0,72,0.00,,,0.00,0,weatherlink.com 1.10,2013-02-07 00:07:00,
2013-02-06 19:22:00,28.7,21.0,30.24,West,268,0.0,0.0,72,0.00,,,0.00,0,weatherlink.com 1.10,2013-02-07 00:22:00,
2013-02-06 19:37:00,28.6,21.0,30.24,West,269,0.0,0.0,73,0.00,,,0.00,0,weatherlink.com 1.10,2013-02-07 00:37:00,
2013-02-06 19:52:00,28.8,21.0,30.24,West,269,0.0,2.0,73,0.00,,,0.00,0,weatherlink.com 1.10,2013-02-07 00:52:00,
2013-02-06 20:07:00,29.0,21.0,30.25,South,187,1.0,5.0,72,0.00,,,0.00,0,weatherlink.com 1.10,2013-02-07 01:07:00,
2013-02-06 20:22:00,29.4,21.0,30.23,SSE,163,0.0,3.0,71,0.00,,,0.00,0,weatherlink.com 1.10,2013-02-07 01:22:00,
2013-02-06 20:37:00,29.5,21.0,30.23,SSE,155,0.0,3.0,71,0.00,,,0.00,0,weatherlink.com 1.10,2013-02-07 01:37:00,
2013-02-06 20:52:00,29.4,21.0,30.23,SE,136,0.0,4.0,71,0.00,,,0.00,0,weatherlink.com 1.10,2013-02-07 01:52:00,
2013-02-06 21:07:00,29.4,21.0,30.22,SE,129,4.0,4.0,71,0.00,,,0.00,0,weatherlink.com 1.10,2013-02-07 02:07:00,
2013-02-06 21:22:00,29.4,21.0,30.22,SE,132,0.0,3.0,72,0.00,,,0.00,0,weatherlink.com 1.10,2013-02-07 02:22:00,
2013-02-06 21:37:00,29.3,21.0,30.23,SE,129,0.0,0.0,72,0.00,,,0.00,0,weatherlink.com 1.10,2013-02-07 02:37:00,
2013-02-06 21:52:00,29.3,21.0,30.23,SE,130,1.0,2.0,72,0.00,,,0.00,0,weatherlink.com 1.10,2013-02-07 02:52:00,
2013-02-06 22:07:00,29.3,21.0,30.24,SE,130,0.0,3.0,72,0.00,,,0.00,0,weatherlink.com 1.10,2013-02-07 03:07:00,
2013-02-06 22:22:00,29.3,21.0,30.24,SE,130,1.0,2.0,72,0.00,,,0.00,0,weatherlink.com 1.10,2013-02-07 03:22:00,
2013-02-06 22:37:00,29.3,21.0,30.24,SE,130,0.0,0.0,72,0.00,,,0.00,0,weatherlink.com 1.10,2013-02-07 03:37:00,
2013-02-06 22:52:00,29.2,21.0,30.23,East,100,0.0,5.0,72,0.00,,,0.00,0,weatherlink.com 1.10,2013-02-07 03:52:00,
2013-02-06 23:07:00,29.2,21.0,30.23,SSE,156,2.0,4.0,72,0.00,,,0.00,0,weatherlink.com 1.10,2013-02-07 04:07:00,
2013-02-06 23:22:00,29.1,21.0,30.22,SE,142,0.0,4.0,72,0.00,,,0.00,0,weatherlink.com 1.10,2013-02-07 04:22:00,
2013-02-06 23:37:00,29.0,21.0,30.23,SE,129,2.0,4.0,72,0.00,,,0.00,0,weatherlink.com 1.10,2013-02-07 04:37:00,
2013-02-06 23:52:00,28.9,21.0,30.23,SE,126,0.0,2.0,73,0.00,,,0.00,0,weatherlink.com 1.10,2013-02-07 04:52:00,